STARLINK-11567, 62909

Orbit data source: Space-Track

STARLINK-11567, 62909 is a payload satellite owned by SpaceX/Seattle (US) in LEO that was launched on Sat, 08 Feb 2025 UTC via an FALCON 9 launch vehicle from the Air Force Eastern Test Range (AFETR). Payload-class satellites include a variety of spacecraft equipped with specific instruments for various scientific and technological missions. These include communications satellites like Starlink; space stations such as the ISS; scientific satellites like the Hubble; Earth observation satellites from companies like Planet Labs, Umbra, and HawkEye 360; GPS; miniature CubeSats for education and research; and military/defense satellites.

Loading next visibility...
Identifier
62909, 2025-027C
Orbit
LEO
Country
Flag of USUS
Related business
Manufacturer
SpaceX/Seattle
Mission
Operational Commercial Communications
Bus & Motor
STARLINK V2MD, Unknown motor
Mass
960 kg wet, ~910 kg dry
Launch date (UTC)
2025-02-08 (9 months ago)
Launch vehicle
FALCON 9
Launch site
Air Force Eastern Test Range (AFETR)
Object type
Payload
Rocket body
Debris
Shape & HBR
Box + 2 Pan, 18.1 m
Radar Cross Section
36.964 m², Large (>1 m²)

Expand to show TLE details & history
Last TLE update: 17 hours ago

TLE from 17 hours ago
0 STARLINK-11567
1 62909U 25027C   25301.53379802  .00334174  00000-0  24801-2 0  9999
2 62909  43.0009  64.5969 0002330 246.0722 113.9902 15.71073013 42362
Epoch: 2025-10-28T12:48Z
TLE epoch observation values (Epoch: 2025-10-28T12:48:40.148Z)
Latitude
-0.00003°
Longitude
-164.69033°
Altitude
356.239 km
Speed
7.697 km/s
True Right ascension
04h 18m 23s
True Declination
0° 00' 00"
Sunlit
Object was in full shadow at epoch
Visualization orbit readout
Latitude
Unknown
Longitude
Unknown
Altitude
Unknown
Speed
Unknown
Apparent Right ascension
Unknown
Apparent Declination
Unknown
Sunlit
N/A
Visualization observer readout
Local Sidereal Time
01:17:51
Azimuth
Unknown
Elevation
Unknown
Doppler factor
Unknown
Orbital elements
Apogee altitude
359.38 km
Perigee altitude
356.241 km
Semi-major axis
6,735.948 km
Eccentricity
0.00023
Inclination
43.0009°
RAAN
64.5969°
Arg. of periapsis
246.0722°
True anomaly
114.01459°
Mean anomaly
113.9902°
Eccentric anomaly
114.0024°
Mean motion
3.92595 °/min
Orbital period
91.7 mins
BSTAR
0.0024801
Loading maneuver chart data...
Computing Atmospheric mass density...
Loading historical data...
Loading historical data...
Loading historical data...
Loading historical data...
Loading historical data...
Loading historical data...
Loading historical data...

Documentation

Showing up to 5 results
|